Blue Lake 5K Run




10/15/2011
3.1 Miles

Click for Age Graded Results   


PlaceLast NameAgeGenderCityStateTimePaceCATAge PlaceGender PlaceClubCR
1 Billy Strick 30MHillsboroOR00:16:530:05:27M711 
2 Cody Sharrer 19M PortlandOR00:17:090:05:32M412 
3 Joe Dudman 47M PortlandOR00:17:220:05:36M1013Team Red Lizard
4 Michael Davis 33M PortlandOR00:17:390:05:42M724 
5 Mike Wittenburg 16MYamhillOR00:17:410:05:42M425 
6 Dale Wernicke 52MKelsoWA00:17:590:05:48M1116 
7 Steve Steiner 37MBanksOR00:18:250:05:56M817 
8 Kevin Filkowski 53MKelsoWA00:18:540:06:06M1128 
9 Hari Bhaskaran 35M PortlandOR00:19:330:06:18M829 
10 Jeb Smythe 50M PortlandOR00:19:420:06:21M11310 
11 Shannon Mckenzie 25FGreshamOR00:19:550:06:25F611 
12 Alan Beck 65MWarrentonOR00:20:030:06:28M14111 
13 Jasonc Smith 40M VancouverWA00:20:250:06:35M9112 
14 William Henry 29M PortlandOR00:20:460:06:42M6113 
15 Joe Urbina 58M BeavertonOR00:21:010:06:47M12114 
16 Michelle Olson 50F PortlandOR00:21:020:06:47F1112 
17 Rich Feucht 36MGreshamOR00:21:110:06:50M8315 
18 Brian Hall 53MGreshamOR00:21:120:06:50M11416 
19 Bill Hedges 61M PortlandOR00:21:200:06:53M13117 
20 Bernie Blazek 66MAlohaOR00:21:230:06:54M14218 
21 Austin Wriggle 19MNorth PlainsOR00:21:250:06:54M4319 
22 Julia Carleton 24F PortlandOR00:21:320:06:57F513 
23 Daniel Grimshaw 12M VancouverWA00:21:370:06:58M3120 
24 Michael Schultz 43M PortlandOR00:22:280:07:15M9221 
25 George Watson 53M Lake OswegoOR00:22:300:07:15M11522 
26 Fidel Banuelos 44MLafayetteOR00:22:360:07:17M9323 
27 Roger Mckayjr 52MAlbanyOR00:22:470:07:21M11624 
28 John Wittmershaus 39M BeavertonOR00:23:080:07:28M8425 
29 David Papazian 53M PortlandOR00:23:090:07:28M11726 
30 Charlotte Trowbridge 23F PortlandOR00:23:110:07:29F524 
31 Kristina Wise 46F PortlandOR00:23:270:07:34F1015 
32 Jim Sapp 61M BeavertonOR00:23:300:07:35M13227 
33 Clint Daeuble 38M PortlandOR00:23:460:07:40M8528 
34 Josh Eddy 13M VancouverWA00:23:590:07:44M3229 
35 Brian Martinez 42M PortlandOR00:24:070:07:47M9430 
36 Liz Miller 40F PortlandOR00:24:160:07:50F916 
37 David Pecora 53MBrush PrairieWA00:24:210:07:51M11831 
38 Jason Vincent 21MTroutdaleOR00:24:260:07:53M5132 
39 Corinne Johnsen 27FMolallaOR00:24:290:07:54F627 
40 Mike Misner 63M Lake OswegoOR00:24:320:07:55M13333 
41 Stephanie Snow 40F BeavertonOR00:24:370:07:56F928 
42 Marilu Semph 53F BeavertonOR00:24:510:08:01F1129 
43 Maribel Fitzpatrick 29FGreshamOR00:24:540:08:02F6310 
44 Megan Bailey 13F VancouverWA00:24:560:08:03F3111 
45 Richard Wroth 17MCarson CityNV00:24:570:08:03M4434 
46 Edgar Gonzalez 22MTroutdaleOR00:25:170:08:09M5235 
47 Gary Reddaway 71M Oregon CityOR00:25:320:08:14M15136 
48 Mark Keener 52MBendOR00:25:390:08:16M11937 
49 Jon Collie 50M VancouverWA00:25:530:08:21M111038 
50 Rachel Lupole 29FFairviewOR00:26:100:08:26F6412 
51 Erik Lundh 55M TigardOR00:26:300:08:33M12239 
52 Isaac Eddy 15M VancouverWA00:26:390:08:36M4540 
53 Jandi Tanninen 31F Battle GroundWA00:26:560:08:41F7113 
54 Dean Utehs 55M VancouverWA00:27:040:08:44M12341 
55 Derrick Sterling 44MAlbanyOR00:27:110:08:46M9542 
56 Margaret Hite 32F PortlandOR00:27:130:08:47F7214 
57 Amber Wesley 45FGales CreekOR00:27:320:08:53F10215 
58 Sami Raves 50M PortlandOR00:27:330:08:53M111143 
59 Ken Ogden 75MSalemOR00:27:350:08:54M16144 
60 Beckie Tempel 36F BeavertonOR00:27:370:08:54F8116 
61 Tom Stanfill 44MHillsboroOR00:27:380:08:55M9645 
62 Keith Shearer 37M PortlandOR00:27:500:08:59M8646 
63 Len Edholm 72MWest LinnOR00:27:550:09:00M15247 
64 Jim Scarth 75M Oregon CityOR00:28:070:09:04M16248 
65 Natalie Phillips 28F BeavertonOR00:28:090:09:05F6517 
66 Doug Kabel 46MCamasWA00:28:140:09:06M10249 
67 Heather Liepold 31F PortlandOR00:28:160:09:07F7318 
68 Carrie Conte 43F PortlandOR00:28:460:09:17F9319 
69 Emily Behunin 33FGreshamOR00:28:470:09:17F7420 
70 Lucy Fleck 26FSalemOR00:28:480:09:17F6621 
71 Misha Peel 29FHood RiverOR00:28:570:09:20F6722 
72 Jawanza Hadley 36M PortlandOR00:28:590:09:21M8750 
73 Greg Wallaert 42M PortlandOR00:29:080:09:24M9751 
74 Caryn Dewey 35FCamasWA00:29:080:09:24F8223 
75 Hailey Dewey 13FCamasWA00:29:080:09:24F3224 
76 Kellie Beck 39F Lake OswegoOR00:29:100:09:25F8325 
77 Alice Tate 57FGreshamOR00:29:110:09:25F12126 
78 Sara Vandecar 19FTroutdaleOR00:29:130:09:25F4127 
79 Michelle Strick 30FHillsboroOR00:29:140:09:26F7528 
80 Kailen Snow 13F BeavertonOR00:29:150:09:26F3329 
81 Kari Dapp 42F PortlandOR00:29:150:09:26F9430 
82 Cara Stuva 41FGreshamOR00:29:160:09:27F9531 
83 Jason Cowley 42M PortlandOR00:29:280:09:30M9852 
84 Lori Jorgensen 49FMolallaOR00:29:300:09:31F10332 
85 Matthew Bailey 11M VancouverWA00:29:370:09:33M3353 
86 Becky Bailey 37F VancouverWA00:29:370:09:33F8433 
87 Korina Leclerc 26FSandyOR00:29:450:09:36F6834 
88 David Henson 56M VancouverWA00:29:500:09:37M12454 
89 Jim Lumpkin 55MWest LinnOR00:29:500:09:37M12555 
90 Daphne Russell 39F VancouverWA00:29:520:09:38F8535 
91 Jeri Reynoldson 40FSandyOR00:30:010:09:41F9636 
92 Tiffany Maydew 38FTroutdaleOR00:30:040:09:42F8637 
93 Bob Chriatian 50MCamasWA00:30:100:09:44M111256 
94 Joseph Hogan 74M VancouverWA00:30:190:09:47M15357 
95 Heather Ruden 43F PortlandOR00:30:410:09:54F9738 
96 Karen Lavoie 41FTroutdaleOR00:30:580:09:59F9839 
97 Eileen Reid 61FHappy ValleyOR00:31:080:10:02F13140 
98 Ralph Brown 67MCorneliusOR00:31:280:10:09M14358 
99 Kathy Gardiner 69FForest GroveOR00:31:340:10:11F14141 
100 Cindy Motta 40FOaklandCA00:31:350:10:11F9942 
101 Sherri Wallaert 42F PortlandOR00:31:370:10:12F91043 
102 Erika Yamamoto 17FTroutdaleOR00:31:510:10:16F4244 
103 Kourtney Nelson 34F PortlandOR00:32:120:10:23F7645 
104 Kevin Histed 38M PortlandOR00:32:170:10:25M8859 
105 Tonya Rodgers 24FBoringOR00:32:450:10:34F5346 
106 Yvette Ly 22FFairviewOR00:32:520:10:36F5447 
107 Michelle Ly 13FFairviewOR00:32:520:10:36F3448 
108 Lee Waters 42M VancouverWA00:32:560:10:37M9960 
109 Judy Ziemer 67FTualatinOR00:32:580:10:38F14249 
110 Jamie Messenger 42FGreshamOR00:33:000:10:39F91150 
111 Robin Cothrell-tubbs 50FSandyOR00:33:000:10:39F11351 
112 Michelle Krummenacker 39FHappy ValleyOR00:33:140:10:43F8752 
113 Lena Couper 23F VancouverWA00:33:150:10:44F5553 
114 Katie Sullivan 33F PortlandOR00:33:390:10:51F7754 
115 Eva Miller 45F PortlandOR00:33:490:10:54F10455 
116 Cherylchops Holste 51F PortlandOR00:34:120:11:02F11456 
117 Mark Haller 51M PortlandOR00:34:120:11:02M111361 
118 Wendy Hopkins 37FTroutdaleOR00:34:410:11:11F8857 
119 Martin Haller 44M VancouverWA00:34:570:11:16M91062 
120 Kimberly Haller 44F VancouverWA00:34:580:11:17F91258 
121 Diane George 56F PortlandOR00:35:000:11:18F12259 
122 Derek Knight 37M VancouverWA00:35:030:11:18M8963 
123 Shawn Hammond 38F PortlandOR00:35:230:11:25F8960 
124 Jerry Deuel 41M VancouverWA00:35:230:11:25M91164 
125 Matt Idler 50M VancouverWA00:35:290:11:27M111465 
126 Amanda Nylund 32FBrush PrairieWA00:35:310:11:27F7861 
127 Clarissa Schuh 44F PortlandOR00:35:450:11:32F91362 
128 Kelly Norris 12MGreshamOR00:35:460:11:32M3466 
129 Robin Norris 49FGreshamOR00:35:480:11:33F10563 
130 Mark Takizawa 48MHillsboroOR00:35:530:11:34M10367 
131 Tracy Reisinger 45F PortlandOR00:36:050:11:38F10664 
132 Cecelia Antonio 54F VancouverWA00:36:260:11:45F11565 
133 Marilyn Lewis 58F Lake OswegoOR00:36:280:11:46F12366 
134 Warren Wang 45M PortlandOR00:36:590:11:56M10468 
135 Kiera Wang 7F PortlandOR00:36:590:11:56F2167 
136 Sharon Jones 62FBoringOR00:37:000:11:56F13268 
137 Cynthia Le 49FFairviewOR00:37:030:11:57F10769 
138 Carol Reynolds 51FTroutdaleOR00:37:070:11:58F11670 
139 Angie Smith 37F PortlandOR00:37:160:12:01F81071 
140 George Lewis 60M Lake OswegoOR00:37:270:12:05M13469 
141 Garrett Dow 37MTroutdaleOR00:37:290:12:05M81070 
142 Shannon Takizawa 32FHillsboroOR00:37:370:12:08F7972 
143 Jen Hamilton 37F PortlandOR00:37:400:12:09F81173 
144 Tina Eddy 42F VancouverWA00:37:550:12:14F91474 
145 Debbie Henson 50F VancouverWA00:38:030:12:17F11775 
146 Anmarie Guisinger 19F Oregon CityOR00:38:110:12:19F4376 
147 Holly Orick 21FMolallaOR00:38:140:12:20F5677 
148 Chance Wriggle 17MNorth PlainsOR00:38:180:12:21M4671 
149 Erin Stewart 28F PortlandOR00:38:300:12:25F6978 
150 Coowee Steffen 58FHappy ValleyOR00:39:220:12:42F12479 
151 Kathy Scholes 50FClackamasOR00:39:230:12:42F11880 
152 Philip Livesley 69M PortlandOR00:39:500:12:51M14472 
153 Jessica Roth 27FGreshamOR00:40:150:12:59F61081 
154 Barbara Wriggle 68FNorth PlainsOR00:40:260:13:03F14382 
155 Nicci Staton 34F BeavertonOR00:40:590:13:13F71083 
156 Angela Avery 31F VancouverWA00:41:120:13:17F71184 
157 Eyvonne Villarreal 65FYuba CityCA00:41:310:13:24F14485 
158 Carole Reiley 66F PortlandOR00:42:120:13:37F14586 
159 David Reiser 58M PortlandOR00:42:430:13:47M12673 
160 Mylee Smith 8F VancouverWA00:44:090:14:15F2287 
161 Nicole Drake 34F PortlandOR00:44:590:14:31F71288 
162 Annette Idler 50F VancouverWA00:45:170:14:36F11989 
163 Mara Smith 9F VancouverWA00:47:080:15:12F2390 
164 Maryellen Smith 62F PortlandOR00:47:110:15:13F13391 
165 Jose Escutia 18MTroutdaleOR00:47:360:15:21M4774 
166 Tracy Mitchell 51F VancouverWA00:47:400:15:23F111092 
167 Kc Meyers 8MNorth PlainsOR00:48:440:15:43M2175 
168 Gretchen Meyers 32FNorth PlainsOR00:48:480:15:44F71393 
169 Crystal Miller 19FTroutdaleOR00:49:220:15:55F4594 
170 Christine Hiland 19FTroudaleOR00:49:220:15:56F4495 
171 Rick Jones 21MWoodburnOR00:53:470:17:21M5376 
172 Paige Jones 26FWoodburnOR00:54:280:17:34F61196 
173 Donald Jones 51MWoodburnOR00:54:290:17:35M111577 
1

Race List    Reports    Home



Click Here for a complete race list

If you have any suggestion, comments, corrections or if you want your name removed from the database, Please Email Russ at RaceResults@comcast.net
Be Patient. Corrections can take up to 2 week to process. Most mistakes are caused by sloppy handwriting. Be considerate by always writing neatly on you registration form. It helps you by having correct database results and it helps me by not having to make the corrections.